SL-14 DEB, 45290

Orbit data source: Space-Track

SL-14 DEB, 45290 is space debris in LEO originally from a launch on Thu, 15 Aug 1991 UTC launched from the Plesetsk Missile And Space Complex (PKMTR). Debris objects in space refer to the collection of defunct objects orbiting the Earth. Examples of debris include non-operational satellites, rocket bodies, and fragments generated from explosions, collisions, or faulty payload assembly.

Loading next visibility...
Identifier
45290, 1991-056AC
Orbit
LEO
Country
Flag of CISCIS
Related business
Manufacturer
Unknown
Mission
Spacecraft
Bus & Motor
Unknown
Mass
Unknown
Launch date (UTC)
1991-08-15 (35 years ago)
Launch vehicle
Unknown
Launch site
Plesetsk Missile And Space Complex (PKMTR)
Object type
Payload
Rocket body
Debris
Shape & HBR
Unknown shape, 0.2 m
Radar Cross Section
Medium (>0.1 m² and <1 m²)

Expand to show TLE details & history
Last TLE update: 15 hours ago

TLE from 15 hours ago
0 SL-14 DEB
1 45290U 91056AC  26163.79669155  .00001443  00000-0  24420-2 0  9993
2 45290  82.6270 104.7823 0103626 288.5209  70.4690 13.42756205307836
Epoch: 2026-06-12T19:07Z
TLE epoch observation values (Epoch: 2026-06-12T19:07:14.149Z)
Latitude
-0.00011°
Longitude
-83.14766°
Altitude
1,076.684 km
Speed
7.326 km/s
True Right ascension
06h 59m 07s
True Declination
0° 00' 00"
Sunlit
Object was in daylight at epoch
Visualization orbit readout
Latitude
Unknown
Longitude
Unknown
Altitude
Unknown
Speed
Unknown
Apparent Right ascension
Unknown
Apparent Declination
Unknown
Sunlit
N/A
Visualization observer readout
Local Sidereal Time
20:18:12
Azimuth
Unknown
Elevation
Unknown
Doppler factor
Unknown
Orbital elements
Apogee altitude
1,173.689 km
Perigee altitude
1,018.781 km
Semi-major axis
7,474.372 km
Eccentricity
0.01036
Inclination
82.627°
RAAN
104.7823°
Arg. of periapsis
288.5209°
True anomaly
71.59294°
Mean anomaly
70.469°
Eccentric anomaly
71.03049°
Mean motion
3.35878 °/min
Orbital period
107.18 mins
BSTAR
0.002442
Loading maneuver chart data...
Computing Atmospheric mass density...
Loading historical data...
Loading historical data...
Loading historical data...
Loading historical data...
Loading historical data...
Loading historical data...
Loading historical data...

Documentation

Showing up to 5 results
|